| time (UTC) | temp F | wind direction | speed MPH | gust MPH | rain 1hr in | rain 24hr in | rain mn in | humidity % | barometer mb |
| 20260502223125 | 55 | 161 | 4.0 | 5.0 | 0.00 | 0.00 | 0.00 | 68 | 1022.6 |
| 20260502222631 | 55 | 172 | 3.0 | 5.0 | 0.00 | 0.00 | 0.00 | 68 | 1022.6 |
| 20260502222128 | 55 | 209 | 4.0 | 7.0 | 0.00 | 0.00 | 0.00 | 68 | 1022.6 |
| 20260502221625 | 55 | 146 | 5.0 | 6.0 | 0.00 | 0.00 | 0.00 | 68 | 1022.6 |
| 20260502221131 | 55 | 180 | 3.0 | 6.0 | 0.00 | 0.00 | 0.00 | 68 | 1022.6 |
| 20260502220628 | 55 | 141 | 6.0 | 6.0 | 0.00 | 0.00 | 0.00 | 68 | 1022.6 |
| 20260502215659 | 55 | 159 | 5.0 | 6.0 | 0.00 | 0.00 | 0.00 | 68 | 1022.5 |
| 20260502215202 | 55 | 176 | 2.0 | 5.0 | 0.00 | 0.00 | 0.00 | 68 | 1022.5 |
| 20260502214700 | 55 | 175 | 1.0 | 6.0 | 0.00 | 0.00 | 0.00 | 67 | 1022.5 |
| 20260502214200 | 56 | 171 | 6.0 | 6.0 | 0.00 | 0.00 | 0.00 | 67 | 1022.6 |
| 20260502213703 | 56 | 188 | 2.0 | 5.0 | 0.00 | 0.00 | 0.00 | 67 | 1022.5 |
| 20260502213200 | 56 | 177 | 2.0 | 6.0 | 0.00 | 0.00 | 0.00 | 67 | 1022.5 |
| 20260502212703 | 56 | 178 | 2.0 | 6.0 | 0.00 | 0.00 | 0.00 | 67 | 1022.5 |
| 20260502212206 | 56 | 160 | 0.0 | 7.0 | 0.00 | 0.00 | 0.00 | 67 | 1022.4 |
| 20260502211700 | 56 | 159 | 3.0 | 5.0 | 0.00 | 0.00 | 0.00 | 67 | 1022.4 |
| 20260502211200 | 56 | 168 | 3.0 | 6.0 | 0.00 | 0.00 | 0.00 | 67 | 1022.5 |
| 20260502210700 | 56 | 178 | 1.0 | 6.0 | 0.00 | 0.00 | 0.00 | 67 | 1022.5 |
| 20260502210200 | 56 | 188 | 5.0 | 7.0 | 0.00 | 0.00 | 0.00 | 68 | 1022.5 |
| 20260502205700 | 56 | 150 | 0.0 | 7.0 | 0.00 | 0.00 | 0.00 | 68 | 1022.4 |
| 20260502205206 | 56 | 126 | 3.0 | 5.0 | 0.00 | 0.00 | 0.00 | 67 | 1022.5 |
| 20260502204700 | 56 | 168 | 4.0 | 6.0 | 0.00 | 0.00 | 0.00 | 67 | 1022.4 |
| 20260502204200 | 56 | 146 | 3.0 | 6.0 | 0.00 | 0.00 | 0.00 | 67 | 1022.4 |
| 20260502203700 | 56 | 140 | 3.0 | 5.0 | 0.00 | 0.00 | 0.00 | 67 | 1022.4 |
| 20260502203200 | 56 | 136 | 2.0 | 6.0 | 0.00 | 0.00 | 0.00 | 67 | 1022.5 |
| 20260502202700 | 56 | 191 | 4.0 | 8.0 | 0.00 | 0.00 | 0.00 | 67 | 1022.5 |
| 20260502202203 | 56 | 163 | 3.0 | 6.0 | 0.00 | 0.00 | 0.00 | 67 | 1022.4 |
| 20260502201700 | 56 | 155 | 1.0 | 7.0 | 0.00 | 0.00 | 0.00 | 67 | 1022.5 |
| 20260502201200 | 56 | 152 | 4.0 | 5.0 | 0.00 | 0.00 | 0.00 | 66 | 1022.5 |
| 20260502200700 | 57 | 166 | 2.0 | 5.0 | 0.00 | 0.00 | 0.00 | 66 | 1022.6 |
| 20260502200200 | 57 | 154 | 2.0 | 5.0 | 0.00 | 0.00 | 0.00 | 66 | 1022.5 |
| 20260502195706 | 57 | 169 | 3.0 | 7.0 | 0.00 | 0.00 | 0.00 | 66 | 1022.4 |
| 20260502195203 | 57 | 144 | 2.0 | 5.0 | 0.00 | 0.00 | 0.00 | 65 | 1022.4 |
| 20260502194700 | 57 | 162 | 4.0 | 7.0 | 0.00 | 0.00 | 0.00 | 65 | 1022.4 |
| 20260502194204 | 57 | 168 | 2.0 | 7.0 | 0.00 | 0.00 | 0.00 | 65 | 1022.4 |
| 20260502193700 | 58 | 151 | 0.0 | 7.0 | 0.00 | 0.00 | 0.00 | 65 | 1022.3 |
| 20260502193200 | 58 | 137 | 0.0 | 5.0 | 0.00 | 0.00 | 0.00 | 64 | 1022.2 |
| 20260502192703 | 58 | 168 | 0.0 | 5.0 | 0.00 | 0.00 | 0.00 | 64 | 1022.3 |
| 20260502192203 | 58 | 186 | 0.0 | 6.0 | 0.00 | 0.00 | 0.00 | 64 | 1022.3 |
| 20260502191700 | 58 | 160 | 0.0 | 5.0 | 0.00 | 0.00 | 0.00 | 64 | 1022.2 |
| 20260502191200 | 58 | 156 | 0.0 | 8.0 | 0.00 | 0.00 | 0.00 | 63 | 1022.0 |
| 20260502190703 | 58 | 146 | 2.0 | 8.0 | 0.00 | 0.00 | 0.00 | 62 | 1022.0 |
| 20260502190200 | 59 | 134 | 0.0 | 5.0 | 0.00 | 0.00 | 0.00 | 61 | 1021.9 |
| 20260502185706 | 60 | 152 | 6.0 | 7.0 | 0.00 | 0.00 | 0.00 | 60 | 1021.8 |
| 20260502185200 | 60 | 114 | 0.0 | 7.0 | 0.00 | 0.00 | 0.00 | 59 | 1021.8 |
| 20260502184700 | 61 | 182 | 0.0 | 3.0 | 0.00 | 0.00 | 0.00 | 58 | 1021.8 |
| 20260502184200 | 61 | 167 | 0.0 | 2.0 | 0.00 | 0.00 | 0.00 | 56 | 1021.7 |
| 20260502183700 | 62 | 106 | 0.0 | 3.0 | 0.00 | 0.00 | 0.00 | 54 | 1021.7 |
| 20260502183200 | 63 | 209 | 0.0 | 4.0 | 0.00 | 0.00 | 0.00 | 52 | 1021.6 |
| 20260502182700 | 63 | 229 | 0.0 | 3.0 | 0.00 | 0.00 | 0.00 | 51 | 1021.5 |
| 20260502182201 | 63 | 288 | 2.0 | 4.0 | 0.00 | 0.00 | 0.00 | 51 | 1021.5 |
| 20260502181700 | 63 | 298 | 1.0 | 5.0 | 0.00 | 0.00 | 0.00 | 50 | 1021.4 |
| 20260502181203 | 63 | 273 | 2.0 | 6.0 | 0.00 | 0.00 | 0.00 | 50 | 1021.4 |
| 20260502180703 | 63 | 266 | 5.0 | 9.0 | 0.00 | 0.00 | 0.00 | 49 | 1021.4 |
| 20260502180200 | 63 | 277 | 2.0 | 6.0 | 0.00 | 0.00 | 0.00 | 50 | 1021.2 |
| 20260502170203 | 65 | 290 | 4.0 | 9.0 | 0.00 | 0.00 | 0.00 | 47 | 1020.7 |
| 20260502164200 | 66 | 257 | 3.0 | 9.0 | 0.00 | 0.00 | 0.00 | 44 | 1020.7 |
| 20260502163706 | 66 | 271 | 5.0 | 8.0 | 0.00 | 0.00 | 0.00 | 45 | 1020.7 |
| 20260502163204 | 66 | 300 | 3.0 | 9.0 | 0.00 | 0.00 | 0.00 | 44 | 1020.7 |
| 20260502162706 | 66 | 292 | 0.0 | 7.0 | 0.00 | 0.00 | 0.00 | 47 | 1020.6 |
| 20260502162200 | 66 | 261 | 7.0 | 12.0 | 0.00 | 0.00 | 0.00 | 47 | 1020.7 |
| 20260502161703 | 66 | 273 | 9.0 | 10.0 | 0.00 | 0.00 | 0.00 | 44 | 1020.6 |
| 20260502161203 | 66 | 279 | 6.0 | 9.0 | 0.00 | 0.00 | 0.00 | 44 | 1020.6 |
| 20260502160700 | 66 | 273 | 1.0 | 9.0 | 0.00 | 0.00 | 0.00 | 44 | 1020.6 |
| 20260502160200 | 66 | 282 | 6.0 | 10.0 | 0.00 | 0.00 | 0.00 | 44 | 1020.5 |
| 20260502152206 | 67 | 312 | 6.0 | 8.0 | 0.00 | 0.00 | 0.00 | 41 | 1020.6 |
| 20260502151700 | 67 | 266 | 4.0 | 11.0 | 0.00 | 0.00 | 0.00 | 40 | 1020.5 |
| 20260502151200 | 67 | 280 | 4.0 | 11.0 | 0.00 | 0.00 | 0.00 | 41 | 1020.5 |
| 20260502150703 | 68 | 311 | 6.0 | 12.0 | 0.00 | 0.00 | 0.00 | 40 | 1020.5 |
| 20260502150200 | 68 | 289 | 6.0 | 9.0 | 0.00 | 0.00 | 0.00 | 40 | 1020.5 |
| 20260502130700 | 67 | 308 | 1.0 | 15.0 | 0.00 | 0.00 | 0.00 | 41 | 1021.2 |
| 20260502130200 | 66 | 271 | 4.0 | 11.0 | 0.00 | 0.00 | 0.00 | 42 | 1021.1 |
| 20260502123700 | 67 | 307 | 5.0 | 9.0 | 0.00 | 0.00 | 0.00 | 42 | 1021.2 |
| 20260502123203 | 66 | 355 | 4.0 | 12.0 | 0.00 | 0.00 | 0.00 | 45 | 1021.2 |
| 20260502122707 | 66 | 16 | 2.0 | 10.0 | 0.00 | 0.00 | 0.00 | 45 | 1021.3 |
| 20260502122201 | 66 | 312 | 4.0 | 12.0 | 0.00 | 0.00 | 0.00 | 45 | 1021.3 |
| 20260502121703 | 66 | 34 | 1.0 | 7.0 | 0.00 | 0.00 | 0.00 | 43 | 1021.3 |
| 20260502121200 | 67 | 279 | 6.0 | 12.0 | 0.00 | 0.00 | 0.00 | 44 | 1021.4 |
| 20260502120706 | 66 | 292 | 3.0 | 9.0 | 0.00 | 0.00 | 0.00 | 43 | 1021.3 |
| 20260502120200 | 66 | 30 | 2.0 | 7.0 | 0.00 | 0.00 | 0.00 | 43 | 1021.3 |
| 20260502115700 | 66 | 340 | 3.0 | 10.0 | 0.00 | 0.00 | 0.00 | 42 | 1021.3 |
| 20260502115206 | 66 | 288 | 5.0 | 12.0 | 0.00 | 0.00 | 0.00 | 43 | 1021.3 |
| 20260502114706 | 66 | 348 | 4.0 | 10.0 | 0.00 | 0.00 | 0.00 | 44 | 1021.2 |
| 20260502114200 | 66 | 328 | 6.0 | 10.0 | 0.00 | 0.00 | 0.00 | 44 | 1021.3 |
| 20260502113709 | 65 | 248 | 4.0 | 12.0 | 0.00 | 0.00 | 0.00 | 44 | 1021.2 |
| 20260502113200 | 66 | 340 | 9.0 | 14.0 | 0.00 | 0.00 | 0.00 | 42 | 1021.2 |
| 20260502112700 | 65 | 281 | 4.0 | 9.0 | 0.00 | 0.00 | 0.00 | 41 | 1021.2 |
| 20260502112200 | 65 | 267 | 5.0 | 10.0 | 0.00 | 0.00 | 0.00 | 40 | 1021.4 |
| 20260502111703 | 66 | 295 | 9.0 | 14.0 | 0.00 | 0.00 | 0.00 | 40 | 1021.3 |
| 20260502111200 | 66 | 334 | 3.0 | 11.0 | 0.00 | 0.00 | 0.00 | 38 | 1021.3 |
| 20260502110701 | 66 | 306 | 7.0 | 11.0 | 0.00 | 0.00 | 0.00 | 38 | 1021.3 |
| 20260502110200 | 65 | 355 | 6.0 | 10.0 | 0.00 | 0.00 | 0.00 | 39 | 1021.4 |
| 20260502105703 | 65 | 296 | 3.0 | 11.0 | 0.00 | 0.00 | 0.00 | 40 | 1021.4 |
| 20260502105203 | 65 | 321 | 2.0 | 13.0 | 0.00 | 0.00 | 0.00 | 40 | 1021.4 |
| 20260502104709 | 66 | 323 | 9.0 | 12.0 | 0.00 | 0.00 | 0.00 | 40 | 1021.4 |
| 20260502104200 | 66 | 313 | 4.0 | 11.0 | 0.00 | 0.00 | 0.00 | 39 | 1021.5 |
| 20260502103703 | 66 | 44 | 4.0 | 11.0 | 0.00 | 0.00 | 0.00 | 40 | 1021.5 |
| 20260502103200 | 65 | 298 | 10.0 | 10.0 | 0.00 | 0.00 | 0.00 | 40 | 1021.5 |
| 20260502102700 | 65 | 298 | 6.0 | 11.0 | 0.00 | 0.00 | 0.00 | 39 | 1021.5 |
| 20260502102200 | 65 | 306 | 6.0 | 14.0 | 0.00 | 0.00 | 0.00 | 42 | 1021.6 |
| 20260502101700 | 65 | 211 | 1.0 | 9.0 | 0.00 | 0.00 | 0.00 | 40 | 1021.5 |
| 20260502101200 | 65 | 323 | 3.0 | 10.0 | 0.00 | 0.00 | 0.00 | 42 | 1021.5 |
| 20260502100706 | 64 | 324 | 6.0 | 14.0 | 0.00 | 0.00 | 0.00 | 42 | 1021.5 |
| 20260502100201 | 64 | 317 | 5.0 | 10.0 | 0.00 | 0.00 | 0.00 | 46 | 1021.6 |
| 20260502091200 | 64 | 15 | 4.0 | 13.0 | 0.00 | 0.00 | 0.00 | 50 | 1021.2 |
| 20260502090700 | 64 | 355 | 6.0 | 14.0 | 0.00 | 0.00 | 0.00 | 49 | 1021.3 |
| 20260502090203 | 64 | 78 | 5.0 | 13.0 | 0.00 | 0.00 | 0.00 | 49 | 1021.2 |
| 20260502071207 | 64 | 321 | 11.0 | 13.0 | 0.00 | 0.00 | 0.00 | 50 | 1020.8 |
| 20260502070704 | 64 | 317 | 2.0 | 6.0 | 0.00 | 0.00 | 0.00 | 51 | 1020.7 |
| 20260502070204 | 63 | 355 | 4.0 | 8.0 | 0.00 | 0.00 | 0.00 | 52 | 1020.8 |
| 20260502065701 | 63 | 18 | 6.0 | 11.0 | 0.00 | 0.00 | 0.00 | 51 | 1020.7 |
| 20260502065201 | 63 | 5 | 4.0 | 11.0 | 0.00 | 0.00 | 0.00 | 49 | 1020.7 |
| 20260502064707 | 64 | 22 | 5.0 | 10.0 | 0.00 | 0.00 | 0.00 | 49 | 1020.7 |
| 20260502064200 | 63 | 301 | 2.0 | 7.0 | 0.00 | 0.00 | 0.00 | 50 | 1020.7 |
| 20260502063704 | 63 | 341 | 5.0 | 8.0 | 0.00 | 0.00 | 0.00 | 54 | 1020.7 |
| 20260502063210 | 61 | 355 | 4.0 | 9.0 | 0.00 | 0.00 | 0.00 | 56 | 1020.7 |
| 20260502062701 | 60 | 195 | 0.0 | 2.0 | 0.00 | 0.00 | 0.00 | 59 | 1020.7 |
| 20260502062201 | 60 | 196 | 0.0 | 2.0 | 0.00 | 0.00 | 0.00 | 60 | 1020.6 |
| 20260502061701 | 59 | 157 | 0.0 | 0.0 | 0.00 | 0.00 | 0.00 | 61 | 1020.7 |
| 20260502061204 | 59 | 157 | 0.0 | 0.0 | 0.00 | 0.00 | 0.00 | 63 | 1020.6 |
| 20260502060704 | 58 | 157 | 0.0 | 1.0 | 0.00 | 0.00 | 0.00 | 64 | 1020.6 |
| 20260502060201 | 57 | 146 | 0.0 | 3.0 | 0.00 | 0.00 | 0.00 | 64 | 1020.6 |
| 20260502055701 | 57 | 163 | 3.0 | 3.0 | 0.00 | 0.00 | 0.00 | 64 | 1020.5 |
| 20260502055204 | 57 | 144 | 0.0 | 4.0 | 0.00 | 0.00 | 0.00 | 64 | 1020.5 |
| 20260502054704 | 57 | 151 | 0.0 | 3.0 | 0.00 | 0.00 | 0.00 | 64 | 1020.5 |
| 20260502054204 | 57 | 141 | 1.0 | 2.0 | 0.00 | 0.00 | 0.00 | 65 | 1020.4 |
| 20260502053707 | 57 | 169 | 0.0 | 2.0 | 0.00 | 0.00 | 0.00 | 65 | 1020.4 |
| 20260502053201 | 56 | 113 | 0.0 | 3.0 | 0.00 | 0.00 | 0.00 | 65 | 1020.4 |
| 20260502052704 | 56 | 139 | 0.0 | 3.0 | 0.00 | 0.00 | 0.00 | 65 | 1020.4 |
| 20260502052204 | 55 | 98 | 0.0 | 5.0 | 0.00 | 0.00 | 0.00 | 65 | 1020.4 |
| 20260502051701 | 55 | 121 | 2.0 | 3.0 | 0.00 | 0.00 | 0.00 | 66 | 1020.4 |
| 20260502051204 | 55 | 150 | 0.0 | 4.0 | 0.00 | 0.01 | 0.00 | 67 | 1020.4 |
| 20260502050704 | 54 | 140 | 2.0 | 5.0 | 0.00 | 0.06 | 0.00 | 68 | 1020.3 |
| 20260502050201 | 54 | 109 | 2.0 | 5.0 | 0.00 | 0.07 | 0.00 | 68 | 1020.3 |
| 20260502045704 | 54 | 169 | 0.0 | 4.0 | 0.00 | 0.11 | 0.00 | 68 | 1020.3 |
| 20260502045202 | 53 | 138 | 4.0 | 4.0 | 0.00 | 0.15 | 0.00 | 69 | 1020.3 |
| 20260502044704 | 53 | 117 | 0.0 | 5.0 | 0.00 | 0.16 | 0.00 | 69 | 1020.3 |
| 20260502044204 | 53 | 139 | 2.0 | 7.0 | 0.00 | 0.16 | 0.00 | 70 | 1020.3 |
| 20260502043701 | 53 | 192 | 4.0 | 8.0 | 0.00 | 0.16 | 0.00 | 70 | 1020.3 |
| 20260502043201 | 53 | 152 | 5.0 | 5.0 | 0.00 | 0.16 | 0.00 | 71 | 1020.2 |
| 20260502042702 | 53 | 117 | 4.0 | 7.0 | 0.00 | 0.16 | 0.00 | 71 | 1020.2 |
| 20260502042204 | 52 | 225 | 5.0 | 6.0 | 0.00 | 0.16 | 0.00 | 71 | 1020.1 |
| 20260502041707 | 53 | 167 | 0.0 | 5.0 | 0.00 | 0.16 | 0.00 | 71 | 1020.2 |
| 20260502041201 | 53 | 127 | 0.0 | 7.0 | 0.00 | 0.16 | 0.00 | 71 | 1020.1 |
| 20260502040707 | 53 | 151 | 2.0 | 7.0 | 0.00 | 0.16 | 0.00 | 72 | 1020.1 |
| 20260502040204 | 53 | 90 | 1.0 | 6.0 | 0.00 | 0.16 | 0.00 | 72 | 1020.1 |
| 20260502035707 | 53 | 186 | 0.0 | 5.0 | 0.00 | 0.16 | 0.00 | 72 | 1020.0 |
| 20260502035201 | 53 | 131 | 4.0 | 7.0 | 0.00 | 0.16 | 0.00 | 72 | 1020.0 |
| 20260502034705 | 53 | 140 | 0.0 | 4.0 | 0.00 | 0.16 | 0.00 | 73 | 1020.0 |
| 20260502034202 | 53 | 132 | 0.0 | 6.0 | 0.00 | 0.16 | 0.00 | 73 | 1020.0 |
| 20260502033701 | 53 | 166 | 0.0 | 4.0 | 0.00 | 0.16 | 0.00 | 74 | 1020.1 |
| 20260502033202 | 53 | 168 | 0.0 | 1.0 | 0.00 | 0.16 | 0.00 | 74 | 1020.1 |
| 20260502032701 | 53 | 140 | 0.0 | 4.0 | 0.00 | 0.16 | 0.00 | 75 | 1020.0 |
| 20260502032201 | 53 | 134 | 0.0 | 4.0 | 0.00 | 0.16 | 0.00 | 75 | 1020.0 |
| 20260502031701 | 53 | 115 | 3.0 | 3.0 | 0.00 | 0.16 | 0.00 | 75 | 1020.0 |
| 20260502031204 | 53 | 116 | 0.0 | 3.0 | 0.00 | 0.16 | 0.00 | 76 | 1020.1 |
| 20260502030704 | 54 | 116 | 0.0 | 4.0 | 0.00 | 0.16 | 0.00 | 76 | 1020.0 |
| 20260502030210 | 54 | 120 | 3.0 | 3.0 | 0.00 | 0.16 | 0.00 | 76 | 1020.0 |
| 20260502025701 | 54 | 113 | 1.0 | 3.0 | 0.00 | 0.16 | 0.00 | 76 | 1020.0 |
| 20260502025201 | 54 | 113 | 1.0 | 4.0 | 0.00 | 0.16 | 0.00 | 76 | 1020.1 |
| 20260502024704 | 54 | 113 | 0.0 | 4.0 | 0.00 | 0.16 | 0.00 | 75 | 1020.1 |
| 20260502024204 | 54 | 113 | 2.0 | 4.0 | 0.00 | 0.16 | 0.00 | 76 | 1020.1 |
| 20260502023701 | 55 | 113 | 0.0 | 4.0 | 0.00 | 0.16 | 0.00 | 75 | 1020.1 |
| 20260502023201 | 55 | 141 | 0.0 | 3.0 | 0.00 | 0.16 | 0.00 | 75 | 1020.1 |
| 20260502022701 | 55 | 134 | 0.0 | 4.0 | 0.00 | 0.16 | 0.00 | 75 | 1020.1 |
| 20260502022201 | 55 | 146 | 2.0 | 6.0 | 0.00 | 0.16 | 0.00 | 75 | 1020.1 |
| 20260502021701 | 55 | 169 | 5.0 | 6.0 | 0.00 | 0.16 | 0.00 | 75 | 1020.2 |
| 20260502021201 | 55 | 116 | 0.0 | 4.0 | 0.00 | 0.16 | 0.00 | 74 | 1020.2 |
| 20260502020701 | 55 | 111 | 0.0 | 1.0 | 0.00 | 0.16 | 0.00 | 75 | 1020.1 |
| 20260502020204 | 55 | 120 | 0.0 | 3.0 | 0.00 | 0.16 | 0.00 | 75 | 1020.1 |
| 20260502015704 | 55 | 136 | 0.0 | 0.0 | 0.00 | 0.16 | 0.00 | 75 | 1020.1 |
| 20260502015158 | 55 | 150 | 0.0 | 3.0 | 0.00 | 0.16 | 0.00 | 75 | 1020.1 |
| 20260502014658 | 55 | 186 | 0.0 | 3.0 | 0.00 | 0.16 | 0.00 | 75 | 1020.1 |
| 20260502014158 | 55 | 105 | 2.0 | 3.0 | 0.00 | 0.16 | 0.00 | 74 | 1020.0 |
| 20260502013658 | 55 | 150 | 1.0 | 5.0 | 0.00 | 0.16 | 0.00 | 74 | 1019.9 |
| 20260502013202 | 55 | 155 | 0.0 | 6.0 | 0.00 | 0.16 | 0.00 | 74 | 1019.9 |
| 20260502012701 | 56 | 109 | 2.0 | 6.0 | 0.00 | 0.16 | 0.00 | 74 | 1019.8 |
| 20260502012204 | 56 | 119 | 0.0 | 3.0 | 0.00 | 0.16 | 0.00 | 74 | 1019.8 |
| 20260502011701 | 56 | 119 | 0.0 | 4.0 | 0.00 | 0.16 | 0.00 | 74 | 1019.7 |
| 20260502011158 | 56 | 126 | 0.0 | 5.0 | 0.00 | 0.16 | 0.00 | 74 | 1019.8 |
| 20260502010701 | 56 | 144 | 0.0 | 5.0 | 0.00 | 0.16 | 0.00 | 74 | 1019.8 |
| 20260502010158 | 56 | 119 | 1.0 | 4.0 | 0.00 | 0.16 | 0.00 | 74 | 1019.9 |
| 20260502005658 | 56 | 169 | 0.0 | 4.0 | 0.00 | 0.16 | 0.00 | 74 | 1019.9 |
| 20260502005205 | 56 | 144 | 3.0 | 5.0 | 0.00 | 0.16 | 0.00 | 74 | 1019.8 |
| 20260502004658 | 56 | 144 | 3.0 | 7.0 | 0.00 | 0.16 | 0.00 | 73 | 1019.8 |
| 20260502004158 | 56 | 173 | 3.0 | 3.0 | 0.00 | 0.16 | 0.00 | 73 | 1019.9 |
| 20260502003658 | 56 | 132 | 0.0 | 3.0 | 0.00 | 0.16 | 0.00 | 73 | 1019.9 |
| 20260502003202 | 56 | 151 | 1.0 | 4.0 | 0.00 | 0.16 | 0.00 | 73 | 1019.8 |
| 20260502002701 | 57 | 144 | 3.0 | 4.0 | 0.00 | 0.16 | 0.00 | 72 | 1019.8 |
| 20260502002158 | 57 | 129 | 2.0 | 3.0 | 0.00 | 0.16 | 0.00 | 72 | 1019.8 |
| 20260502001658 | 57 | 169 | 0.0 | 0.0 | 0.00 | 0.16 | 0.00 | 72 | 1019.8 |
| 20260502001158 | 57 | 169 | 0.0 | 3.0 | 0.00 | 0.16 | 0.00 | 72 | 1019.8 |
| 20260502000658 | 57 | 160 | 1.0 | 3.0 | 0.00 | 0.16 | 0.00 | 71 | 1019.7 |
| 20260502000158 | 57 | 155 | 1.0 | 5.0 | 0.00 | 0.16 | 0.00 | 71 | 1019.7 |
| 20260501235701 | 58 | 135 | 2.0 | 4.0 | 0.00 | 0.16 | 0.00 | 70 | 1019.6 |
| 20260501235159 | 58 | 146 | 0.0 | 3.0 | 0.00 | 0.16 | 0.00 | 70 | 1019.7 |
| 20260501234658 | 58 | 167 | 1.0 | 2.0 | 0.00 | 0.16 | 0.00 | 69 | 1019.7 |
| 20260501234205 | 58 | 167 | 0.0 | 0.0 | 0.00 | 0.16 | 0.00 | 69 | 1019.7 |
| 20260501233658 | 58 | 167 | 0.0 | 2.0 | 0.00 | 0.16 | 0.00 | 69 | 1019.8 |
| 20260501233201 | 58 | 117 | 0.0 | 3.0 | 0.00 | 0.16 | 0.00 | 69 | 1019.8 |
| 20260501232659 | 58 | 162 | 0.0 | 2.0 | 0.00 | 0.16 | 0.00 | 69 | 1019.7 |
| 20260501232201 | 58 | 162 | 0.0 | 2.0 | 0.00 | 0.16 | 0.00 | 69 | 1019.7 |
| 20260501231707 | 58 | 162 | 0.0 | 4.0 | 0.00 | 0.16 | 0.00 | 70 | 1019.8 |
| 20260501231202 | 58 | 136 | 1.0 | 4.0 | 0.00 | 0.16 | 0.00 | 70 | 1019.8 |
| 20260501230659 | 58 | 115 | 2.0 | 7.0 | 0.00 | 0.16 | 0.00 | 70 | 1019.8 |
| 20260501230158 | 58 | 160 | 0.0 | 5.0 | 0.00 | 0.16 | 0.00 | 71 | 1019.8 |
| 20260501225702 | 57 | 183 | 2.0 | 7.0 | 0.00 | 0.16 | 0.00 | 71 | 1019.9 |
| 20260501225159 | 57 | 136 | 0.0 | 5.0 | 0.00 | 0.16 | 0.00 | 71 | 1019.9 |
| 20260501224702 | 57 | 159 | 2.0 | 8.0 | 0.00 | 0.16 | 0.00 | 71 | 1019.9 |
| 20260501224158 | 57 | 156 | 2.0 | 8.0 | 0.00 | 0.16 | 0.00 | 72 | 1019.8 |
| 20260501223702 | 57 | 152 | 4.0 | 7.0 | 0.00 | 0.16 | 0.00 | 72 | 1019.8 |